{"data":{"norad_id":66290,"intl_designator":"2025-247AB","name":"STARLINK-35799","alt_names":[],"object_type":"PAYLOAD","status":"ACTIVE","operator":null,"country":"US","launch_date":"2025-10-31","launch_site_code":"AFWTR","launch_vehicle":null,"mission":null,"orbit_class":"UNKNOWN","rcs_meters":null,"size_class":null,"mass_kg":null,"dimensions":null,"purposes":["comms"],"wikipedia_slug":null,"has_3d_model":false,"image_url":null,"decayed_at":null,"tle_current":{"epoch":"2026-05-25T03:14:33.192096Z","epoch_age_seconds":66660,"freshness":"FRESH","line1":"1 66290U 25247AB  26145.13510639  .00019150  00000+0  57625-3 0  9992","line2":"2 66290  53.1597 195.2354 0001489  82.4236 277.6936 15.34411116 32801","mean_motion":15.34411116,"eccentricity":0.0001489,"inclination_deg":53.1597,"raan_deg":195.2354,"arg_perigee_deg":82.4236,"mean_anomaly_deg":277.6936,"bstar":0.00057625,"rev_number":3280,"period_min":93.847078203779,"perigee_km":461.6516051197,"apogee_km":463.68879750425,"semimajor_km":6840.807201312,"source":"CELESTRAK","updated_at":"2026-05-25T13:38:21.165515Z"}}}